This demonstration page uses our WeatherBlox Daily Observations layout. Learn more.

Left ArrowRight Arrow

39.51506, -84.39828

Hourly Observations for July 15, 2015

Temp ( °F °C ) Dew Point ( °F °C ) Humidity (%) Winds ( mph kmh ) Pressure ( in mb ) Visibility ( mi km ) Precip ( " mm )
12:15 am 00:15 Partly Cloudy 74 23.1 64 17.8 72 72 NNW 5 7 29.77 1008 10 16 N/A
12:35 am 00:35 Mostly Cloudy 74 23.6 65 18.3 72 72 N 7 11 29.77 1008 10 16 N/A
12:55 am 00:55 Partly Cloudy 74 23.2 64 18 73 73 N 6 9 29.77 1008 10 16 N/A
1:15 am 01:15 Clear 71 21.7 63 17.1 75 75 N 7 11 29.77 1008 10 16 N/A
1:35 am 01:35 Clear 70 21 62 16.6 76 76 NNW 5 7 29.77 1008 10 16 N/A
1:55 am 01:55 Clear 69 20.8 62 16.8 78 78 NNW 5 7 29.80 1009 10 16 N/A
2:15 am 02:15 Clear 69 20.8 63 17 79 79 N 3 6 29.80 1009 10 16 N/A
2:35 am 02:35 Clear 69 20.8 63 17.4 81 81 NNW 6 9 29.80 1009 10 16 N/A
2:55 am 02:55 Partly Cloudy 69 20.8 64 17.6 82 82 NNW 3 6 29.80 1009 10 16 N/A
3:15 am 03:15 Partly Cloudy 69 20.8 64 17.8 83 83 N N/A 29.80 1009 10 16 N/A
3:35 am 03:35 Partly Cloudy 69 20.8 64 17.8 83 83 N N/A 29.80 1009 10 16 N/A
3:55 am 03:55 Partly Cloudy 69 20.8 64 18 84 84 N N/A 29.80 1009 10 16 N/A
4:15 am 04:15 Partly Cloudy 69 20.8 64 18 84 84 NNW 3 6 29.83 1010 10 16 N/A
4:35 am 04:35 Clear 69 20.8 65 18.1 85 85 N N/A 29.83 1010 10 16 N/A
4:55 am 04:55 Clear 69 20.8 65 18.1 85 85 N N/A 29.83 1010 10 16 N/A
5:15 am 05:15 Mostly Cloudy 69 20.8 65 18.2 85 85 NW 5 7 29.83 1010 10 16 N/A
5:35 am 05:35 Cloudy 69 20.8 64 18 84 84 NNW 5 7 29.83 1010 10 16 N/A
5:55 am 05:55 Cloudy 69 20.8 64 18 84 84 N 7 11 29.83 1010 10 16 N/A
6:15 am 06:15 Cloudy 69 20.8 64 18 84 84 N 8 13 29.83 1010 10 16 N/A
6:35 am 06:35 Cloudy 69 20.8 64 18 84 84 N 8 13 29.83 1010 10 16 N/A
6:55 am 06:55 Cloudy 69 20.8 64 17.9 84 84 N 8 13 29.85 1011 10 16 N/A
7:15 am 07:15 Cloudy 69 20.8 64 17.9 84 84 N 8 13 29.85 1011 10 16 N/A
7:35 am 07:35 Cloudy 69 20.8 64 17.7 83 83 N 8 13 29.85 1011 10 16 N/A
7:55 am 07:55 Cloudy 69 20.8 64 17.7 83 83 N 9 15 29.85 1011 7 11 N/A
8:15 am 08:15 Cloudy 69 20.8 63 17.1 79 79 N 9 15 29.88 1012 10 16 N/A
8:35 am 08:35 Partly Cloudy 69 20.8 62 16.7 77 77 N 13 20 29.88 1012 10 16 N/A
8:55 am 08:55 Partly Cloudy 69 20.8 62 16.5 77 77 N 15 24 29.88 1012 10 16 N/A
9:15 am 09:15 Mostly Cloudy 69 20.8 62 16.7 77 77 N 9 15 29.88 1012 10 16 N/A
9:35 am 09:35 Cloudy 71 21.8 63 17.3 76 76 NNE 9 15 29.88 1012 10 16 N/A
9:55 am 09:55 Mostly Cloudy 71 21.7 63 17.4 77 77 NE 9 15 29.91 1013 10 16 N/A
10:15 am 10:15 Cloudy 71 21.6 63 17.1 76 76 N 10 17 29.91 1013 10 16 N/A
10:35 am 10:35 Cloudy 73 22.8 65 18.4 76 76 N 9 15 29.91 1013 10 16 N/A
10:55 am 10:55 Mostly Cloudy 74 23.4 64 18 72 72 NNE 9 15 29.94 1014 10 16 N/A
11:15 am 11:15 Partly Cloudy 74 23.6 64 17.9 70 70 NNW 7 11 29.94 1014 10 16 N/A
11:35 am 11:35 Mostly Cloudy 74 23.6 65 18.2 72 72 NNE 8 13 29.94 1014 10 16 N/A
11:55 am 11:55 Partly Cloudy 74 23.6 64 17.8 70 70 N 8 13 29.94 1014 10 16 N/A
12:15 pm 12:15 Partly Cloudy 74 23.6 63 17 67 67 N 8 13 29.94 1014 10 16 N/A
12:35 pm 12:35 Partly Cloudy 77 25 64 18 65 65 NE 9 15 29.94 1014 10 16 N/A
12:55 pm 12:55 Partly Cloudy 77 25.1 65 18.3 66 66 NNE 9 15 29.94 1014 10 16 N/A
1:15 pm 13:15 Partly Cloudy 77 25.1 63 17.1 61 61 ENE 10 17 29.94 1014 10 16 N/A
1:35 pm 13:35 Sunny 77 25.2 63 17.2 61 61 ENE 12 19 29.94 1014 10 16 N/A
1:55 pm 13:55 Sunny 77 25.1 62 16.6 59 59 N 7 11 29.94 1014 10 16 N/A
2:15 pm 14:15 Sunny 80 26.5 64 17.5 58 58 NNE 8 13 29.94 1014 10 16 N/A
2:35 pm 14:35 Sunny 80 26.5 62 16.6 55 55 ENE 5 7 29.94 1014 10 16 N/A
2:55 pm 14:55 Sunny 80 26.5 62 16.5 54 54 N 9 15 29.94 1014 10 16 N/A
3:15 pm 15:15 Sunny 80 26.8 63 17.4 56 56 NNW 5 7 29.94 1014 10 16 N/A
3:35 pm 15:35 Partly Cloudy 80 26.8 63 17.2 56 56 NNE 8 13 29.94 1014 10 16 N/A
3:55 pm 15:55 Partly Cloudy 80 26.6 61 16.3 53 53 NNE 7 11 29.94 1014 10 16 N/A
4:15 pm 16:15 Sunny 81 27.1 63 17.2 55 55 NNW 7 11 29.94 1014 10 16 N/A
4:35 pm 16:35 Partly Cloudy 80 26.5 62 16.7 55 55 N 6 9 29.94 1014 10 16 N/A
4:55 pm 16:55 Partly Cloudy 81 27.2 62 16.9 53 53 N 7 11 29.94 1014 10 16 N/A
5:15 pm 17:15 Partly Cloudy 81 27.2 63 17.3 55 55 NNW 8 13 29.94 1014 10 16 N/A
5:35 pm 17:35 Mostly Cloudy 81 27.2 63 17.1 54 54 NW 9 15 29.94 1014 10 16 N/A
5:55 pm 17:55 Mostly Cloudy 81 27 63 17.4 56 56 N 8 13 29.94 1014 10 16 N/A
6:15 pm 18:15 Partly Cloudy 77 25.1 61 16.3 58 58 N 6 9 29.94 1014 10 16 N/A
6:35 pm 18:35 Partly Cloudy 80 26.5 62 16.5 54 54 N 9 15 29.94 1014 10 16 N/A
6:55 pm 18:55 Mostly Cloudy 79 26 62 16.9 57 57 N 8 13 29.94 1014 10 16 N/A
7:15 pm 19:15 Partly Cloudy 80 26.5 62 16.4 54 54 N 8 13 29.94 1014 10 16 N/A
7:35 pm 19:35 Sunny 77 25.1 61 16.2 58 58 NNE 7 11 29.94 1014 10 16 N/A
7:55 pm 19:55 Sunny 77 25.1 62 16.9 60 60 NE 8 13 29.94 1014 10 16 N/A
8:15 pm 20:15 Sunny 77 25.1 64 17.7 64 64 NNE 7 11 29.97 1015 10 16 N/A
8:35 pm 20:35 Sunny 74 23.6 62 16.4 64 64 NE 7 11 29.97 1015 10 16 N/A
8:55 pm 20:55 Sunny 74 23.6 62 16.9 66 66 NE 8 13 29.97 1015 10 16 N/A
9:15 pm 21:15 Clear 74 23.6 63 17.4 68 68 NE 6 9 29.97 1015 10 16 N/A
9:35 pm 21:35 Clear 71 21.4 61 16.1 72 72 NNE 6 9 29.97 1015 10 16 N/A
9:55 pm 21:55 Clear 69 20.8 61 15.9 74 74 NNE 6 9 29.97 1015 10 16 N/A
10:15 pm 22:15 Clear 69 20.8 61 16.3 76 76 NNE 6 9 29.97 1015 10 16 N/A
10:35 pm 22:35 Clear 69 20.8 62 16.5 77 77 NNE 6 9 30.00 1016 10 16 N/A
10:55 pm 22:55 Clear 69 20.8 62 16.7 77 77 NNE 3 6 30.00 1016 10 16 N/A
11:15 pm 23:15 Clear 69 20.8 62 16.6 77 77 N 3 6 30.00 1016 10 16 N/A
11:35 pm 23:35 Clear 68 19.8 62 16.4 81 81 N N/A 30.00 1016 10 16 N/A
11:55 pm 23:55 Clear 67 19.5 61 16.1 81 81 N 3 6 30.03 1017 10 16 N/A

Powered by AerisWeather